IRIDIUM 33 DEB, 33775

Orbit data source: Space-Track

IRIDIUM 33 DEB, 33775 is space debris in LEO originally from a launch on Sun, 14 Sep 1997 UTC launched from the Tyuratam Missile And Space Complex (TTMTR). The debris from Iridium 33, an American commercial communications satellite, has been tracked extensively since its accidental collision with the defunct Russian satellite Cosmos 2251 in 2009. This event, occurring at high speed in low Earth orbit (LEO), generated thousands of pieces of space debris, significantly increasing the risk of further collisions. The Iridium 33 debris cloud has impacted space traffic management and orbital debris mitigation strategies, making it a subject of ongoing study in space situational awareness.

Loading next visibility...
Identifier
33775, 1997-051N
Orbit
LEO
Country
Flag of USUS
Related business
Manufacturer
Unknown
Mission
Spacecraft
Bus & Motor
Unknown
Mass
Unknown
Launch date (UTC)
1997-09-14 (28 years ago)
Launch vehicle
Unknown
Launch site
Tyuratam Missile And Space Complex (TTMTR)
Object type
Payload
Rocket body
Debris
Shape & HBR
Unknown shape, 0.3 m
Radar Cross Section
Medium (>0.1 m² and <1 m²)

Expand to show TLE details & history
Last TLE update: 10 hours ago

TLE from 10 hours ago
0 IRIDIUM 33 DEB
1 33775U 97051N   25355.17822061  .00000727  00000-0  21779-3 0  9999
2 33775  86.3627  45.9507 0015071 129.3749 284.9532 14.41484651882625
Epoch: 2025-12-21T04:16Z
TLE epoch observation values (Epoch: 2025-12-21T04:16:38.260Z)
Latitude
54.10081°
Longitude
-103.19194°
Altitude
759.832 km
Speed
7.481 km/s
True Right ascension
03h 23m 50s
True Declination
53° 56' 14"
Sunlit
Object was in full shadow at epoch
Visualization orbit readout
Latitude
Unknown
Longitude
Unknown
Altitude
Unknown
Speed
Unknown
Apparent Right ascension
Unknown
Apparent Declination
Unknown
Sunlit
N/A
Visualization observer readout
Local Sidereal Time
13:03:48
Azimuth
Unknown
Elevation
Unknown
Doppler factor
Unknown
Orbital elements
Apogee altitude
761.296 km
Perigee altitude
739.809 km
Semi-major axis
7,128.689 km
Eccentricity
0.00151
Inclination
86.3627°
RAAN
45.9507°
Arg. of periapsis
129.3749°
True anomaly
284.78627°
Mean anomaly
284.9532°
Eccentric anomaly
284.86974°
Mean motion
3.60602 °/min
Orbital period
99.83 mins
BSTAR
0.00021779
Loading maneuver chart data...
Computing Atmospheric mass density...
Loading historical data...
Loading historical data...
Loading historical data...
Loading historical data...
Loading historical data...
Loading historical data...
Loading historical data...

Documentation

Showing up to 5 results
|